{"data":{"norad_id":53781,"epoch":"2026-09-20T22:00:03.000096Z","epoch_age_seconds":48147,"freshness":"FRESH","line1":"1 53781U 22111J   26263.91670139  .00025796  00000+0  74872-3 0  9995","line2":"2 53781  53.1609 113.9718 0001165  84.6773 248.0757 15.35365253  5802","mean_motion":15.35365253,"eccentricity":0.0001165,"inclination_deg":53.1609,"raan_deg":113.9718,"arg_perigee_deg":84.6773,"mean_anomaly_deg":248.0757,"bstar":0.00074872,"rev_number":580,"period_min":93.7887578989,"perigee_km":459.03918418069,"apogee_km":460.63243184496,"semimajor_km":6837.9728080128,"source":"CELESTRAK","updated_at":"2026-09-21T09:00:32.992785Z"}}